SSC

Satellite information

Favourite Embed

Satellite Type and Status

PAYLOADIN ORBIT

Key statistics

Satellite SSC at a glance.

Uptime

15596

Days in orbit

Revolutions

≈ 13.8

Per day

Orbit

LEO

Low Earth Orbit

Inclination

63.3

Latest

Satellite identification and parameters

Extended collection of information and parameters for SSC.

Object identification

Identified? True

Debris? False

Object name: SSC

International designator: 1983-008H

Object number (NORAD): 13874

Object ID (CCSDS): 13874

Country: UNITED STATES OF AMERICA (US)

Current information (Y/N): Y

RCS size: LARGE

Orbital parameters

Period: 104.406 minutes

Inclination: 63.3034 deg

SMA: 7344.749 km

Apoapsis: 1504.669 km

Periapsis: 428.559 km

RAAN: 302.0906 deg

Eccentricy: 0.07325708

Argument of periapsis: 132.3033 deg

Mean anomaly: 234.2529 deg

Mean motion: 13.79232004 rev/day

Mean motion (dot): 0.00003466 rev/day2

B* drag term: 0.00041337065 1/REarth

Two-line elements (TLE)

Creation date: Oct. 21, 2025, 6:24 p.m.

Reference frame: TEME

Reference center: EARTH

Epoch: Oct. 21, 2025, 10:08 a.m. UTC

TLE line 0: 0 SSC

TLE line 1: 1 13874U 83008H 25294.42275413 .00003466 00000-0 41337-3 0 9992

TLE line 2: 2 13874 63.3034 302.0906 0732571 132.3033 234.2529 13.79232004318699

Live tracking on map

Real-time ground track for satellite SSC.

In-orbit conjunctions

A list of the most updated potential collisions computed for object SSC.

Target Orbit TCA Probability of collision Miss distance Type
FENGYUN 1C DEB SSO 2024-09-17 04:22:28 0.0001012015 451.0 (m) DEBRIS

Associated space launch

The Parcae satellites were passive ELINT satellites. MSD satellites were dispensers of triplets of ocean surveillance satellites.

SSC was lifted into orbit during the mission ‘Atlas H | Parcae 5A,B,C & MSD 5’, on board a Atlas H space rocket.

The launch took place on Feb. 9, 1983, 1:47 p.m. from Space Launch Complex 3E.

For more information about the launch, click the button.

Launch to space Atlas H | Parcae 5A,B,C & MSD 5
Atlas H | Parcae 5A,B,C & MSD 5

Agency: N/A

Status: Launch Successful

Launch date: Feb. 9, 1983, 1:47 p.m. UTC

Rocket: Atlas H

Launch pad: Space Launch Complex 3E

Location: Vandenberg SFB, CA, USA

...

Latest news about this satellite

There are no fresh news available about this satellite. Check back as we update our databases every day.


Newsletter sign-up

Weekly statistics, charts and insights to help you stay on top of the space industry.